Location: Cahas Mountain Overlook
(37.0833°N, 80.1000°W)
Time: 22:25:36
(UTC-05:00)

Vanguard 2 - Visible Passes

Search period start: 27 January 2022 00:00
Search period end: 06 February 2022 00:00
Orbit: 554 x 2935 km, 32.9° (Epoch: 27 January)

Date Brightness Start Highest point End Pass type
(mag) Time Alt. Az. Time Alt. Az. Time Alt. Az.
27 Jan 11.4 03:11:39 20° S 03:11:39 20° S 03:16:22 10° SSE visible
27 Jan 9.5 18:31:44 10° SSW 18:37:17 31° SE 18:44:06 14° E visible
27 Jan 9.1 20:37:52 10° WSW 20:45:29 65° S 20:45:29 65° S visible
27 Jan 11.1 22:45:51 10° W 22:46:52 15° W 22:46:52 15° W visible
28 Jan 11.5 03:28:20 17° S 03:28:20 17° S 03:32:08 10° S visible
28 Jan 9.2 18:48:38 10° SW 18:54:30 39° SSE 19:00:39 19° E visible
28 Jan 9.2 20:55:21 10° WSW 21:02:02 63° SW 21:02:02 63° SW visible
29 Jan 11.6 03:44:58 13° SSW 03:44:58 13° SSW 03:47:02 10° S visible
29 Jan 9.0 19:05:46 10° SW 19:11:51 48° SSE 19:17:12 25° E visible
29 Jan 9.4 21:12:53 10° W 21:18:35 53° WSW 21:18:35 53° WSW visible
30 Jan 8.8 19:23:04 10° WSW 19:29:18 57° SSE 19:33:44 32° E visible
30 Jan 9.8 21:30:27 10° W 21:35:06 42° WSW 21:35:06 42° WSW visible
31 Jan 8.7 19:40:28 10° WSW 19:46:51 63° SSE 19:50:16 41° ESE visible
31 Jan 10.1 21:48:02 10° W 21:51:38 32° W 21:51:38 32° W visible
01 Feb 8.7 19:57:57 10° WSW 20:04:27 67° S 20:06:47 51° ESE visible
01 Feb 10.5 22:05:38 10° W 22:08:10 24° W 22:08:10 24° W visible
02 Feb 8.6 18:08:32 10° SW 18:13:24 45° SSE 18:21:01 10° E visible
02 Feb 8.7 20:15:28 10° W 20:22:06 67° S 20:23:20 61° SE visible
02 Feb 10.8 22:23:18 10° W 22:24:43 17° W 22:24:43 17° W visible
03 Feb 8.4 18:25:51 10° WSW 18:30:52 53° SSE 18:38:30 11° E visible
03 Feb 8.8 20:33:00 10° W 20:39:45 65° S 20:39:53 64° S visible
03 Feb 11.1 22:41:01 10° W 22:41:16 11° W 22:41:16 11° W visible
04 Feb 8.3 18:43:15 10° WSW 18:48:23 60° S 18:55:04 16° E visible
04 Feb 9.0 20:50:34 10° W 20:56:26 56° SW 20:56:26 56° SW visible
05 Feb 8.3 19:00:44 10° WSW 19:05:58 62° S 19:11:39 20° ESE visible
05 Feb 9.4 21:08:11 10° W 21:13:02 44° SW 21:13:02 44° SW visible
